DW8394 Gloucester UK current weather conditions

sailwx.info

Air temperature 17.8° C
Dewpoint 12.7° C

Last reported at 2019-Jun-20 01:08 UTC.
Time now 2019-Jun-20 03:01 UTC

Location: N 51°51' W 002°12'.
View on Google Maps.

See reports from other nearby stations

  
Tides and Currents Weather Stations Pressure Air Temp Water Temp Dewpoint Dewpoint Depression Visibility Wind Speed Wind Dir Waves Ship Positions
date/time (UTC)wind fromknots sea level pressurealtimeterstation pressurevisibilityair tempwater tempwave heightnotes
2019-Jun-20 01:08 17.8
2019-Jun-20 01:04 17.8
2019-Jun-20 01:00 17.8
2019-Jun-20 00:52 17.8
2019-Jun-20 00:48 17.8
2019-Jun-20 00:44 17.8
2019-Jun-20 00:40 17.8
2019-Jun-20 00:32 207 17.8
2019-Jun-20 00:28 17.8
2019-Jun-20 00:24 17.8
2019-Jun-20 00:20 17.8
2019-Jun-20 00:12 222 17.8
2019-Jun-20 00:08 219 17.8
2019-Jun-20 00:04 297 0 gusting 0 17.8
2019-Jun-20 00:00 298 0 gusting 3 17.8
2019-Jun-19 23:52 278 0 gusting 4 18.3
2019-Jun-19 23:48 267 0 gusting 3 18.3
2019-Jun-19 23:44 275 0 gusting 2 18.3
2019-Jun-19 23:40 279 0 gusting 3 18.3
2019-Jun-19 23:32 292 1 gusting 5 18.3
2019-Jun-19 23:28 289 1 gusting 4 18.3
2019-Jun-19 23:24 288 1 gusting 5 18.3
2019-Jun-19 23:20 296 2 gusting 6 18.3
2019-Jun-19 23:12 286 2 gusting 7 18.3
2019-Jun-19 23:08 293 2 gusting 6 18.3
2019-Jun-19 23:04 294 2 gusting 7 18.3
2019-Jun-19 23:00 300 1 gusting 7 18.3
2019-Jun-19 22:52 264 18.3
2019-Jun-19 22:48 243 18.3
2019-Jun-19 22:44 18.3
2019-Jun-19 22:40 337 18.3
2019-Jun-19 22:32 246 18.3
2019-Jun-19 22:28 259 18.3
2019-Jun-19 22:24 294 18.3
2019-Jun-19 22:20 232 18.3
2019-Jun-19 22:12 260 18.3
2019-Jun-19 22:08 244 18.3
2019-Jun-19 22:04 234 18.3
2019-Jun-19 22:00 230 18.3
2019-Jun-19 21:52 222 0 gusting 4 18.3
2019-Jun-19 21:48 220 0 gusting 4 18.9
2019-Jun-19 21:44 209 0 gusting 4 18.9
2019-Jun-19 21:40 222 1 gusting 3 18.9
2019-Jun-19 21:32 207 1 gusting 5 18.9
2019-Jun-19 21:28 230 2 gusting 5 18.9
2019-Jun-19 21:24 229 2 gusting 5 18.9
2019-Jun-19 21:20 222 1 gusting 6 18.9
2019-Jun-19 21:12 226 1 gusting 4 18.9
2019-Jun-19 21:08 221 1 gusting 5 18.9
2019-Jun-19 21:04 232 1 gusting 4 18.9
2019-Jun-19 21:00 224 1 gusting 4 18.9
2019-Jun-19 20:52 216 1 gusting 4 18.9
2019-Jun-19 20:48 215 1 gusting 4 18.9
2019-Jun-19 20:44 228 1 gusting 5 18.9
2019-Jun-19 20:40 228 0 gusting 3 18.9
2019-Jun-19 20:32 229 1 gusting 3 18.9
2019-Jun-19 20:28 230 1 gusting 6 18.9
2019-Jun-19 20:24 222 0 gusting 3 18.9
2019-Jun-19 20:20 212 1 gusting 5 19.4
2019-Jun-19 20:12 207 0 gusting 4 19.4
2019-Jun-19 20:08 215 1 gusting 2 19.4
2019-Jun-19 20:04 227 1 gusting 5 19.4
2019-Jun-19 20:00 218 1 gusting 5 19.4
2019-Jun-19 19:52 231 1 gusting 5 19.4
2019-Jun-19 19:48 221 1 gusting 4 19.4
2019-Jun-19 19:44 206 1 gusting 6 19.4
2019-Jun-19 19:40 212 1 gusting 5 19.4
2019-Jun-19 19:32 206 1 gusting 3 19.4
2019-Jun-19 19:28 210 0 gusting 5 19.4
2019-Jun-19 19:24 221 0 gusting 3 19.4
2019-Jun-19 19:20 217 0 gusting 4 19.4
2019-Jun-19 19:12 202 0 gusting 3 19.4
2019-Jun-19 19:08 203 0 gusting 4 19.4
2019-Jun-19 19:04 218 0 gusting 4 19.4
2019-Jun-19 19:00 206 1 gusting 3 19.4
2019-Jun-19 18:52 213 2 gusting 6 19.4
2019-Jun-19 18:48 211 2 gusting 6 19.4
2019-Jun-19 18:44 236 2 gusting 5 19.4
2019-Jun-19 18:40 237 2 gusting 5 19.4
2019-Jun-19 18:32 210 1 gusting 6 19.4
2019-Jun-19 18:28 211 1 gusting 6 19.4
2019-Jun-19 18:24 218 2 gusting 4 19.4
2019-Jun-19 18:20 229 2 gusting 6 19.4
2019-Jun-19 18:12 207 2 gusting 6 19.4
2019-Jun-19 18:08 219 2 gusting 6 19.4
2019-Jun-19 18:04 206 2 gusting 5 19.4
2019-Jun-19 18:00 242 1 gusting 5 19.4
2019-Jun-19 17:52 211 1 gusting 6 19.4
2019-Jun-19 17:48 203 1 gusting 5 19.4
2019-Jun-19 17:44 225 1 gusting 5 19.4
2019-Jun-19 17:40 221 1 gusting 4 19.4
2019-Jun-19 17:32 234 1 gusting 4 19.4
2019-Jun-19 17:28 225 1 gusting 4 19.4
2019-Jun-19 17:24 217 0 gusting 3 19.4
2019-Jun-19 17:20 222 0 gusting 3 19.4
2019-Jun-19 17:12 249 0 gusting 3 19.4
2019-Jun-19 17:08 240 0 gusting 3 19.4
2019-Jun-19 17:04 205 0 gusting 1 19.4
2019-Jun-19 17:00 220 0 gusting 2 19.4
2019-Jun-19 16:52 259 0 gusting 3 19.4
2019-Jun-19 16:48 238 19.4
2019-Jun-19 16:44 190 19.4
2019-Jun-19 16:40 109 19.4
2019-Jun-19 16:32 091 19.4
2019-Jun-19 16:28 124 19.4
2019-Jun-19 16:24 132 18.9
2019-Jun-19 16:20 133 18.9
2019-Jun-19 16:12 014 18.9
2019-Jun-19 16:08 085 18.9
2019-Jun-19 16:04 18.9
2019-Jun-19 16:00 349 18.9
2019-Jun-19 15:52 273 18.9
2019-Jun-19 15:48 227 18.9
2019-Jun-19 15:44 18.9
2019-Jun-19 15:40 201 18.9
2019-Jun-19 15:32 18.9
2019-Jun-19 15:28 178 18.9
2019-Jun-19 15:24 18.9
2019-Jun-19 15:20 196 18.9
2019-Jun-19 15:12 207 18.9
2019-Jun-19 15:08 216 18.9
2019-Jun-19 15:04 149 18.9
2019-Jun-19 15:00 097 18.9
2019-Jun-19 14:52 193 18.9
2019-Jun-19 14:48 201 18.9
2019-Jun-19 14:44 18.9
2019-Jun-19 14:40 236 18.9
2019-Jun-19 14:32 230 18.9
2019-Jun-19 14:28 227 0 gusting 2 18.9
2019-Jun-19 14:24 241 0 gusting 2 18.9
2019-Jun-19 14:20 251 0 gusting 2 18.9
2019-Jun-19 14:12 288 1 gusting 4 18.9
2019-Jun-19 14:08 314 1 gusting 6 18.9
2019-Jun-19 14:04 315 18.9
2019-Jun-19 14:00 279 18.9
2019-Jun-19 13:52 18.9
2019-Jun-19 13:48 18.9
2019-Jun-19 13:44 18.9
2019-Jun-19 13:40 18.9
2019-Jun-19 13:32 18.9
2019-Jun-19 13:28 18.9
2019-Jun-19 13:24 18.9
2019-Jun-19 13:20 18.9
2019-Jun-19 13:12 18.9
2019-Jun-19 13:08 18.9
2019-Jun-19 13:04 18.9
2019-Jun-19 13:00 18.3
2019-Jun-19 12:52 18.3
2019-Jun-19 12:48 069 18.3
2019-Jun-19 12:44 051 18.3
2019-Jun-19 12:40 039 18.3
2019-Jun-19 12:32 034 0 gusting 3 18.3
2019-Jun-19 12:28 043 0 gusting 2 18.3
2019-Jun-19 12:24 037 0 gusting 3 18.3
2019-Jun-19 12:20 028 0 gusting 3 18.3
2019-Jun-19 12:12 033 0 gusting 4 18.3
2019-Jun-19 12:08 024 0 gusting 5 18.3
2019-Jun-19 12:04 045 0 gusting 3 18.3
2019-Jun-19 12:00 029 0 gusting 4 18.3
2019-Jun-19 11:52 013 1 gusting 5 18.3
2019-Jun-19 11:48 038 1 gusting 4 18.3
2019-Jun-19 11:44 015 1 gusting 5 18.3
2019-Jun-19 11:40 019 0 gusting 4 18.3
2019-Jun-19 11:32 355 18.3
2019-Jun-19 11:28 350 18.3
2019-Jun-19 11:24 042 18.3
2019-Jun-19 11:20 056 18.3
2019-Jun-19 11:12 18.3
2019-Jun-19 11:08 043 18.3
2019-Jun-19 11:04 18.3
2019-Jun-19 11:00 18.3
2019-Jun-19 10:52 17.8
2019-Jun-19 10:48 17.8
2019-Jun-19 10:44 17.8
2019-Jun-19 10:40 060 17.8
2019-Jun-19 10:32 014 17.8
2019-Jun-19 10:28 004 17.8
2019-Jun-19 10:24 030 17.8
2019-Jun-19 10:20 033 17.8
2019-Jun-19 10:12 352 17.8
2019-Jun-19 10:08 025 0 gusting 1 17.8
2019-Jun-19 10:04 011 17.8
2019-Jun-19 10:00 014 17.8
2019-Jun-19 09:52 035 0 gusting 2 17.8
2019-Jun-19 09:48 016 0 gusting 3 17.8
2019-Jun-19 09:44 033 0 gusting 4 17.8
2019-Jun-19 09:40 005 17.8
2019-Jun-19 09:32 015 17.8
2019-Jun-19 09:28 081 17.8
2019-Jun-19 09:24 073 17.8
2019-Jun-19 09:20 037 17.8
2019-Jun-19 09:12 014 0 gusting 3 17.8
2019-Jun-19 09:08 339 0 gusting 4 17.8
2019-Jun-19 09:04 340 17.8
2019-Jun-19 09:00 355 17.8
2019-Jun-19 08:52 338 17.8
2019-Jun-19 08:48 014 0 gusting 3 17.2
2019-Jun-19 08:44 010 0 gusting 4 17.2
2019-Jun-19 08:40 350 17.2
2019-Jun-19 08:32 005 0 gusting 3 17.2
2019-Jun-19 08:28 012 0 gusting 4 17.2
2019-Jun-19 08:24 019 0 gusting 4 17.2
2019-Jun-19 08:20 027 0 gusting 3 17.2
2019-Jun-19 08:12 339 0 gusting 3 17.2
2019-Jun-19 08:08 345 0 gusting 5 17.2
2019-Jun-19 08:04 343 17.2
2019-Jun-19 08:00 292 17.2
2019-Jun-19 07:52 005 17.2
2019-Jun-19 07:48 329 17.2
2019-Jun-19 07:44 290 0 gusting 3 17.2
2019-Jun-19 07:40 345 0 gusting 3 17.2
2019-Jun-19 07:32 334 0 gusting 6 17.2
2019-Jun-19 07:28 346 17.2
2019-Jun-19 07:24 356 17.2
2019-Jun-19 07:20 356 17.2
2019-Jun-19 07:12 349 0 gusting 3 17.2
2019-Jun-19 07:08 355 0 gusting 4 17.2
2019-Jun-19 07:04 348 0 gusting 3 17.2
2019-Jun-19 07:00 344 0 gusting 3 17.2
2019-Jun-19 06:52 336 17.2
2019-Jun-19 06:48 354 17.2
2019-Jun-19 06:44 007 17.2
2019-Jun-19 06:40 322 17.2
2019-Jun-19 06:32 17.2
2019-Jun-19 06:28 17.2
2019-Jun-19 06:24 17.2
2019-Jun-19 06:20 17.2
2019-Jun-19 06:12 065 17.2
2019-Jun-19 06:08 17.2
2019-Jun-19 06:04 17.2
2019-Jun-19 06:00 339 17.2
2019-Jun-19 05:52 014 0 gusting 3 16.7
2019-Jun-19 05:48 351 0 gusting 2 16.7
2019-Jun-19 05:44 338 16.7
2019-Jun-19 05:40 002 16.7
2019-Jun-19 05:32 331 0 gusting 5 16.7
2019-Jun-19 05:28 353 0 gusting 6 16.7
2019-Jun-19 05:24 353 0 gusting 3 17.2
2019-Jun-19 05:20 339 0 gusting 2 17.2
2019-Jun-19 05:12 331 17.2
2019-Jun-19 05:08 346 17.2
2019-Jun-19 05:04 005 0 gusting 2 17.2
2019-Jun-19 05:00 343 0 gusting 3 17.2
2019-Jun-19 04:52 343 0 gusting 3 17.2
2019-Jun-19 04:48 334 0 gusting 2 17.2
2019-Jun-19 04:44 344 0 gusting 5 17.2
2019-Jun-19 04:40 340 0 gusting 3 17.2
2019-Jun-19 04:32 328 17.2
2019-Jun-19 04:28 295 17.2
2019-Jun-19 04:24 310 17.2
2019-Jun-19 04:20 17.2
2019-Jun-19 04:12 17.2
2019-Jun-19 04:08 17.2
2019-Jun-19 04:04 17.2
2019-Jun-19 04:00 17.2
2019-Jun-19 03:52 17.2
2019-Jun-19 03:48 17.2
2019-Jun-19 03:44 17.2
2019-Jun-19 03:40 17.2
2019-Jun-19 03:32 17.2
2019-Jun-19 03:28 17.2
2019-Jun-19 03:24 17.2
2019-Jun-19 03:20 17.2
2019-Jun-19 03:12 17.2
2019-Jun-19 03:08 17.2
2019-Jun-19 03:04 17.2
2019-Jun-19 03:00 17.2
2019-Jun-19 02:52 17.2
2019-Jun-19 02:48 17.2
2019-Jun-19 02:44 17.2
2019-Jun-19 02:40 17.2
2019-Jun-19 02:32 17.2
2019-Jun-19 02:28 17.2
2019-Jun-19 02:24 17.2
2019-Jun-19 02:20 17.2
2019-Jun-19 02:12 17.2
2019-Jun-19 02:08 17.2
2019-Jun-19 02:04 17.2
2019-Jun-19 02:00 17.2
2019-Jun-19 01:52 17.2
2019-Jun-19 01:48 17.2
2019-Jun-19 01:44 17.2
2019-Jun-19 01:40 17.2
2019-Jun-19 01:32 077 17.2
2019-Jun-19 01:28 088 17.2
2019-Jun-19 01:24 099 17.2
2019-Jun-19 01:20 085 17.2
2019-Jun-19 01:12 17.2
2019-Jun-19 01:08 17.2
2019-Jun-19 01:04 095 17.8
2019-Jun-19 01:00 096 17.8
2019-Jun-19 00:52 17.8
2019-Jun-19 00:48 17.8
2019-Jun-19 00:44 17.8
2019-Jun-19 00:40 17.8
2019-Jun-19 00:32 17.8
2019-Jun-19 00:28 17.8
2019-Jun-19 00:24 17.8
2019-Jun-19 00:20 17.8
2019-Jun-19 00:12 17.8
2019-Jun-19 00:08 106 17.8
2019-Jun-19 00:04 17.8
2019-Jun-19 00:00 17.8
2019-Jun-18 23:52 17.8
2019-Jun-18 23:48 17.8
2019-Jun-18 23:44 17.8
2019-Jun-18 23:40 17.8
2019-Jun-18 23:32 17.8
2019-Jun-18 23:28 17.8
2019-Jun-18 23:24 17.8
2019-Jun-18 23:20 17.8
2019-Jun-18 23:12 17.8
2019-Jun-18 23:08 17.8
2019-Jun-18 23:04 17.8
2019-Jun-18 23:00 17.8
2019-Jun-18 22:52 17.8
2019-Jun-18 22:48 17.8
2019-Jun-18 22:44 17.8
2019-Jun-18 22:40 17.8
2019-Jun-18 22:32 031 17.8
2019-Jun-18 22:28 17.8
2019-Jun-18 22:24 17.8
2019-Jun-18 22:20 17.8
2019-Jun-18 22:12 17.8
2019-Jun-18 22:08 17.8
2019-Jun-18 22:04 18.3
2019-Jun-18 22:00 18.3
2019-Jun-18 21:52 18.3
2019-Jun-18 21:48 18.3
2019-Jun-18 21:44 18.3
2019-Jun-18 21:12 18.3
2019-Jun-18 21:08 18.3
2019-Jun-18 21:04 18.3
2019-Jun-18 21:00 18.3
2019-Jun-18 20:52 18.3
2019-Jun-18 20:48 18.3
2019-Jun-18 20:44 18.3
2019-Jun-18 20:40 18.3
2019-Jun-18 20:32 18.3
2019-Jun-18 20:28 18.3
2019-Jun-18 20:24 18.3
2019-Jun-18 20:20 18.3
2019-Jun-18 20:12 18.3
2019-Jun-18 20:08 081 18.3
2019-Jun-18 20:04 18.3
2019-Jun-18 20:00 18.3
2019-Jun-18 19:52 18.9
2019-Jun-18 19:48 18.9
2019-Jun-18 19:44 18.9
2019-Jun-18 19:40 18.9
2019-Jun-18 19:32 18.9
2019-Jun-18 19:28 18.9
2019-Jun-18 19:24 18.9
2019-Jun-18 19:20 18.9
2019-Jun-18 19:12 18.9
2019-Jun-18 19:08 18.9
2019-Jun-18 19:04 18.9
2019-Jun-18 19:00 18.9
2019-Jun-18 18:52 18.9
2019-Jun-18 18:48 18.9
2019-Jun-18 18:44 18.9
2019-Jun-18 18:40 18.9
2019-Jun-18 18:32 318 18.9
2019-Jun-18 18:28 296 18.9
2019-Jun-18 18:24 303 18.9
2019-Jun-18 18:20 294 18.9
2019-Jun-18 18:12 301 0 gusting 2 18.9
2019-Jun-18 18:08 322 18.9
2019-Jun-18 18:04 321 18.9
2019-Jun-18 18:00 345 18.9
2019-Jun-18 17:52 359 18.9
2019-Jun-18 17:48 012 18.9
2019-Jun-18 17:44 342 0 gusting 2 18.9
2019-Jun-18 17:40 005 0 gusting 1 18.9
2019-Jun-18 17:32 001 0 gusting 3 18.9
2019-Jun-18 17:28 005 0 gusting 3 18.9
2019-Jun-18 17:24 016 18.9
2019-Jun-18 17:20 024 18.9
2019-Jun-18 17:12 005 19.4
2019-Jun-18 17:08 015 19.4
2019-Jun-18 17:04 19.4
2019-Jun-18 17:00 19.4
2019-Jun-18 16:52 19.4
2019-Jun-18 16:48 19.4
2019-Jun-18 16:40 242 19.4
2019-Jun-18 16:32 241 19.4
2019-Jun-18 16:28 19.4
2019-Jun-18 16:24 19.4
2019-Jun-18 16:20 271 19.4
2019-Jun-18 16:12 19.4
2019-Jun-18 16:08 294 19.4
2019-Jun-18 16:04 282 19.4
2019-Jun-18 16:00 19.4
2019-Jun-18 15:52 19.4
2019-Jun-18 15:48 201 19.4
2019-Jun-18 15:44 206 19.4
2019-Jun-18 15:40 196 19.4
2019-Jun-18 15:32 200 19.4
2019-Jun-18 15:28 206 19.4
2019-Jun-18 15:24 208 19.4
2019-Jun-18 15:20 175 0 gusting 3 19.4
2019-Jun-18 15:12 193 0 gusting 4 19.4
2019-Jun-18 15:08 195 19.4
2019-Jun-18 15:04 184 19.4
2019-Jun-18 15:00 202 19.4
2019-Jun-18 14:52 164 19.4
2019-Jun-18 14:48 207 19.4
2019-Jun-18 14:44 207 19.4
2019-Jun-18 14:40 202 19.4
2019-Jun-18 14:32 168 19.4
2019-Jun-18 14:28 150 19.4
2019-Jun-18 14:24 121 19.4
2019-Jun-18 14:20 095 19.4
2019-Jun-18 14:12 074 19.4
2019-Jun-18 14:08 132 0 gusting 2 19.4
2019-Jun-18 14:04 106 0 gusting 3 19.4
2019-Jun-18 14:00 115 0 gusting 3 19.4
2019-Jun-18 13:52 111 19.4
2019-Jun-18 13:48 123 0 gusting 3 19.4
2019-Jun-18 13:44 120 0 gusting 3 19.4
2019-Jun-18 13:40 101 0 gusting 5 19.4
2019-Jun-18 13:32 124 19.4
2019-Jun-18 13:28 111 19.4
2019-Jun-18 13:24 112 19.4
2019-Jun-18 13:20 192 19.4
2019-Jun-18 13:12 151 19.4
2019-Jun-18 13:08 19.4
2019-Jun-18 13:04 150 19.4
2019-Jun-18 13:00 185 19.4
2019-Jun-18 12:52 177 19.4
2019-Jun-18 12:48 161 0 gusting 2 19.4
2019-Jun-18 12:44 168 0 gusting 4 19.4
2019-Jun-18 12:40 152 0 gusting 3 19.4
2019-Jun-18 12:32 185 0 gusting 2 19.4
2019-Jun-18 12:28 164 19.4
2019-Jun-18 12:24 190 19.4
2019-Jun-18 12:20 168 0 gusting 3 19.4
2019-Jun-18 12:12 144 0 gusting 3 19.4
2019-Jun-18 12:08 193 0 gusting 2 19.4
2019-Jun-18 12:04 200 0 gusting 2 19.4
2019-Jun-18 12:00 179 0 gusting 4 19.4
2019-Jun-18 11:52 189 0 gusting 3 19.4
2019-Jun-18 11:48 195 0 gusting 2 19.4
2019-Jun-18 11:44 186 1 gusting 5 19.4
2019-Jun-18 11:40 162 1 gusting 6 19.4
2019-Jun-18 11:32 212 1 gusting 5 19.4
2019-Jun-18 11:28 203 0 gusting 5 19.4
2019-Jun-18 11:24 200 0 gusting 3 19.4
2019-Jun-18 11:20 173 0 gusting 5 19.4
2019-Jun-18 11:12 178 0 gusting 3 18.9
2019-Jun-18 11:08 204 0 gusting 6 18.9
2019-Jun-18 11:04 155 0 gusting 3 18.9
2019-Jun-18 11:00 161 0 gusting 5 18.9
2019-Jun-18 10:52 207 1 gusting 5 18.9
2019-Jun-18 10:48 191 1 gusting 5 18.9
2019-Jun-18 10:44 200 1 gusting 5 18.9
2019-Jun-18 10:40 213 1 gusting 4 18.9
2019-Jun-18 10:32 197 1 gusting 5 18.9
2019-Jun-18 10:28 192 1 gusting 5 18.3
2019-Jun-18 10:24 182 1 gusting 6 18.3
2019-Jun-18 10:20 199 1 gusting 5 18.3
2019-Jun-18 10:12 187 1 gusting 3 18.3
2019-Jun-18 10:08 187 2 gusting 6 18.3
2019-Jun-18 10:04 201 2 gusting 6 18.3
2019-Jun-18 10:00 194 2 gusting 6 18.3
2019-Jun-18 09:52 162 1 gusting 6 18.3
2019-Jun-18 09:48 169 1 gusting 6 18.3
2019-Jun-18 09:44 221 2 gusting 6 17.8
2019-Jun-18 09:40 200 2 gusting 6 17.8
2019-Jun-18 09:32 205 1 gusting 6 17.8
2019-Jun-18 09:28 196 0 gusting 4 17.8
2019-Jun-18 09:24 210 0 gusting 3 17.8
2019-Jun-18 09:20 157 0 gusting 5 17.8
2019-Jun-18 09:12 184 2 gusting 6 17.8
2019-Jun-18 09:08 183 2 gusting 7 17.8
2019-Jun-18 09:04 200 1 gusting 6 17.2
2019-Jun-18 09:00 175 1 gusting 6 17.2
2019-Jun-18 08:52 144 0 gusting 6 17.2
2019-Jun-18 08:48 150 0 gusting 5 17.2
2019-Jun-18 08:44 136 0 gusting 3 17.2
2019-Jun-18 08:40 163 0 gusting 5 17.2
2019-Jun-18 08:32 213 0 gusting 2 17.2
2019-Jun-18 08:28 225 1 gusting 4 17.2
2019-Jun-18 08:24 195 1 gusting 6 17.2
2019-Jun-18 08:20 126 2 gusting 6 17.2
2019-Jun-18 08:12 211 1 gusting 5 17.2
2019-Jun-18 08:08 190 1 gusting 4 17.2
2019-Jun-18 08:04 199 0 gusting 3 17.2
2019-Jun-18 08:00 196 0 gusting 4 17.2
2019-Jun-18 07:52 166 16.7
2019-Jun-18 07:48 118 0 gusting 1 16.7
2019-Jun-18 07:44 198 0 gusting 2 16.7
2019-Jun-18 07:40 208 0 gusting 3 16.7
2019-Jun-18 07:32 185 16.7
2019-Jun-18 07:28 16.7
2019-Jun-18 07:24 123 16.7
2019-Jun-18 07:20 221 0 gusting 2 16.7
2019-Jun-18 07:12 190 0 gusting 3 16.7
2019-Jun-18 07:08 203 1 gusting 4 16.7
2019-Jun-18 07:04 210 0 gusting 3 16.7
2019-Jun-18 07:00 208 0 gusting 2 16.7
2019-Jun-18 06:52 221 16.7
2019-Jun-18 06:48 221 16.7
2019-Jun-18 06:44 262 16.7
2019-Jun-18 06:40 231 16.7
2019-Jun-18 06:32 16.7
2019-Jun-18 06:28 222 16.7
2019-Jun-18 06:24 229 0 gusting 2 16.7
2019-Jun-18 06:20 205 1 gusting 3 16.7
2019-Jun-18 06:12 214 0 gusting 3 16.7
2019-Jun-18 06:08 205 0 gusting 2 16.7
2019-Jun-18 06:04 214 0 gusting 3 16.7
2019-Jun-18 06:00 202 0 gusting 3 16.7
2019-Jun-18 05:52 214 16.7
2019-Jun-18 05:48 223 16.7
2019-Jun-18 05:44 16.7
2019-Jun-18 05:40 16.7
2019-Jun-18 05:32 16.7
2019-Jun-18 05:28 16.7
2019-Jun-18 05:24 224 16.7
2019-Jun-18 05:20 206 16.7
2019-Jun-18 05:12 201 16.7
2019-Jun-18 05:08 199 16.7
2019-Jun-18 05:04 213 16.7
2019-Jun-18 05:00 16.7
2019-Jun-18 04:52 212 16.7
2019-Jun-18 04:48 195 16.7
2019-Jun-18 04:44 207 0 gusting 1 16.7
2019-Jun-18 04:40 204 0 gusting 2 16.7
2019-Jun-18 04:32 204 16.7
2019-Jun-18 04:28 216 16.7
2019-Jun-18 04:24 16.7
2019-Jun-18 04:20 16.7
2019-Jun-18 04:12 16.7
2019-Jun-18 04:08 16.7
2019-Jun-18 04:04 16.7
2019-Jun-18 04:00 16.7
2019-Jun-18 03:52 17.2
2019-Jun-18 03:48 17.2
2019-Jun-18 03:44 17.2
2019-Jun-18 03:40 17.2
2019-Jun-18 03:32 17.2
2019-Jun-18 03:28 17.2
2019-Jun-18 03:24 17.2
2019-Jun-18 03:20 17.2
2019-Jun-18 03:12 17.2
2019-Jun-18 03:08 17.2
2019-Jun-18 03:04 17.2
2019-Jun-18 03:00 17.2